Weather History for Madison, MN

Change the Weather History Date:

Sunday, October 14, 2012

  Actual Average (KAQP) Record (KAQP)
Temperature  
Mean Temperature 46 °F -  
Max Temperature 57 °F 56 °F 71 °F (1999)
Min Temperature 33 °F 34 °F 19 °F (2006)
Degree Days  
Heating Degree Days 19    
Moisture  
Dew Point 31 °F    
Average Humidity 58    
Maximum Humidity 75    
Minimum Humidity 33    
Precipitation  
Precipitation 0.00 in - - ()
Sea Level Pressure  
Sea Level Pressure 29.87 in    
Wind  
Wind Speed 13 mph (NW)    
Max Wind Speed 23 mph    
Max Gust Speed 29 mph    
Visibility 10 miles    
Events      
Averages and records for this station are not official NWS values.
T = Trace of Precipitation, MM = Missing Value Source: NWS Daily Summary

Daily Weather History Graph

Daily Weather History Graph

Search for Another Location

Airport:

Trip Planner

Search our weather history database for the weather conditions in past years. The results will help you decide how hot, cold, wet, or windy it might be!

Date:

Astronomy

Oct. 14, 2012 Rise Set
Actual Time 7:39 AM CDT 6:40 PM CDT
Civil Twilight 7:10 AM CDT 7:10 PM CDT
Nautical Twilight 6:36 AM CDT 7:44 PM CDT
Astronomical Twilight 6:02 AM CDT 8:18 PM CDT
Moon 6:39 AM CDT (10/14) 6:00 PM CDT (10/14)
Length of Visible Light 11h 59m
Length of Day
11h 00m
Waning Crescent, 1% of the Moon is Illuminated
Oct 14
Waning Crescent
Oct 15
New
Oct 21
First Quarter
Oct 29
Full
Nov 6
Last Quarter

Hourly Weather History & Observations

Time (CDT) Temp. Windchill Dew Point Humidity Pressure Visibility Wind Dir Wind Speed Gust Speed Precip Events Conditions
12:14 AM 44.6 °F 39.2 °F 35.6 °F 71% 29.77 in 10.0 mi NNW 10.4 mph - N/A   Clear
12:33 AM 44.6 °F 38.8 °F 35.6 °F 71% 29.78 in 10.0 mi NNW 11.5 mph - N/A   Clear
12:54 AM 46.4 °F 40.1 °F 33.8 °F 62% 29.78 in 10.0 mi NNW 15.0 mph - N/A   Clear
1:13 AM 46.4 °F 39.8 °F 33.8 °F 62% 29.77 in 10.0 mi NNW 16.1 mph - N/A   Clear
1:34 AM 44.6 °F 38.1 °F 33.8 °F 66% 29.78 in 10.0 mi NNW 13.8 mph - N/A   Clear
1:53 AM 44.6 °F 38.4 °F 32.0 °F 61% 29.79 in 10.0 mi NNW 12.7 mph - N/A   Clear
2:14 AM 44.6 °F 38.4 °F 32.0 °F 61% 29.80 in 10.0 mi NNW 12.7 mph - N/A   Clear
2:34 AM 42.8 °F 37.0 °F 32.0 °F 66% 29.80 in 10.0 mi NW 10.4 mph - N/A   Clear
2:53 AM 42.8 °F 36.6 °F 32.0 °F 66% 29.80 in 10.0 mi NNW 11.5 mph - N/A   Clear
3:14 AM 42.8 °F 37.0 °F 32.0 °F 66% 29.81 in 10.0 mi NW 10.4 mph 17.3 mph N/A   Clear
3:34 AM 41.0 °F 34.3 °F 30.2 °F 65% 29.81 in 10.0 mi NW 11.5 mph - N/A   Clear
3:53 AM 41.0 °F 33.5 °F 30.2 °F 65% 29.80 in 10.0 mi NW 13.8 mph - N/A   Clear
4:14 AM 41.0 °F 33.9 °F 30.2 °F 65% 29.81 in 10.0 mi NNW 12.7 mph - N/A   Clear
4:34 AM 39.2 °F 32.5 °F 30.2 °F 70% 29.82 in 10.0 mi NNW 10.4 mph - N/A   Clear
4:53 AM 39.2 °F 33.0 °F 30.2 °F 70% 29.82 in 10.0 mi NNW 9.2 mph - N/A   Clear
5:14 AM 39.2 °F 33.0 °F 30.2 °F 70% 29.83 in 10.0 mi NW 9.2 mph - N/A   Clear
5:34 AM 37.4 °F 32.1 °F 30.2 °F 75% 29.83 in 10.0 mi NW 6.9 mph - N/A   Clear
5:53 AM 37.4 °F 30.3 °F 30.2 °F 75% 29.83 in 10.0 mi NW 10.4 mph - N/A   Clear
6:14 AM 37.4 °F 29.3 °F 30.2 °F 75% 29.84 in 10.0 mi NW 12.7 mph - N/A   Clear
6:34 AM 39.2 °F 31.2 °F 30.2 °F 70% 29.85 in 10.0 mi NNW 13.8 mph - N/A   Clear
6:53 AM 39.2 °F 32.5 °F 30.2 °F 70% 29.85 in 10.0 mi NNW 10.4 mph - N/A   Clear
7:14 AM 39.2 °F 32.5 °F 30.2 °F 70% 29.86 in 10.0 mi NNW 10.4 mph - N/A   Clear
7:34 AM 39.2 °F 32.0 °F 30.2 °F 70% 29.87 in 10.0 mi NW 11.5 mph - N/A   Clear
7:53 AM 37.4 °F 29.3 °F 30.2 °F 75% 29.87 in 10.0 mi NW 12.7 mph - N/A   Clear
8:14 AM 39.2 °F 30.8 °F 30.2 °F 70% 29.87 in 10.0 mi NNW 15.0 mph - N/A   Clear
8:34 AM 39.2 °F 31.2 °F 30.2 °F 70% 29.87 in 10.0 mi NNW 13.8 mph - N/A   Clear
8:54 AM 39.2 °F 30.8 °F 30.2 °F 70% 29.88 in 10.0 mi NW 15.0 mph - N/A   Clear
9:13 AM 39.2 °F 31.2 °F 30.2 °F 70% 29.88 in 10.0 mi NW 13.8 mph - N/A   Clear
9:34 AM 42.8 °F 34.5 °F 30.2 °F 61% 29.88 in 10.0 mi NNW 18.4 mph 23.0 mph N/A   Clear
9:54 AM 42.8 °F 34.5 °F 30.2 °F 61% 29.88 in 10.0 mi NW 18.4 mph 26.5 mph N/A   Clear
10:13 AM 44.6 °F 37.2 °F 32.0 °F 61% 29.89 in 10.0 mi NW 17.3 mph - N/A   Clear
10:34 AM 46.4 °F 39.8 °F 32.0 °F 57% 29.89 in 10.0 mi NW 16.1 mph 23.0 mph N/A   Clear
10:53 AM 48.2 °F - 32.0 °F 54% 29.89 in 10.0 mi NW 17.3 mph 21.9 mph N/A   Clear
11:14 AM 50.0 °F - 32.0 °F 50% 29.90 in 10.0 mi NNW 18.4 mph 23.0 mph N/A   Clear
11:34 AM 51.8 °F - 32.0 °F 47% 29.90 in 10.0 mi NNW 17.3 mph 23.0 mph N/A   Clear
11:53 AM 51.8 °F - 32.0 °F 47% 29.89 in 10.0 mi NNW 19.6 mph - N/A   Clear
12:14 PM 53.6 °F - 30.2 °F 41% 29.90 in 10.0 mi North 17.3 mph 25.3 mph N/A   Clear
12:34 PM 53.6 °F - 30.2 °F 41% 29.90 in 10.0 mi North 20.7 mph 26.5 mph N/A   Clear
12:53 PM 55.4 °F - 30.2 °F 38% 29.90 in 10.0 mi NNW 23.0 mph 26.5 mph N/A   Clear
1:14 PM 55.4 °F - 28.4 °F 36% 29.89 in 10.0 mi NNW 20.7 mph 28.8 mph N/A   Clear
1:34 PM 55.4 °F - 28.4 °F 36% 29.89 in 10.0 mi NNW 23.0 mph 26.5 mph N/A   Clear
1:53 PM 55.4 °F - 28.4 °F 36% 29.89 in 10.0 mi North 20.7 mph 25.3 mph N/A   Clear
2:14 PM 57.2 °F - 28.4 °F 33% 29.89 in 10.0 mi North 19.6 mph 25.3 mph N/A   Clear
2:34 PM 57.2 °F - 28.4 °F 33% 29.89 in 10.0 mi NNW 17.3 mph 25.3 mph N/A   Clear
3:14 PM 57.2 °F - 30.2 °F 36% 29.89 in 10.0 mi North 18.4 mph 21.9 mph N/A   Clear
3:34 PM 57.2 °F - 30.2 °F 36% 29.89 in 10.0 mi NNW 16.1 mph 23.0 mph N/A   Clear
3:53 PM 57.2 °F - 32.0 °F 38% 29.89 in 10.0 mi North 16.1 mph 20.7 mph N/A   Clear
4:14 PM 57.2 °F - 32.0 °F 38% 29.89 in 10.0 mi NNW 15.0 mph 21.9 mph N/A   Clear
4:34 PM 57.2 °F - 33.8 °F 41% 29.89 in 10.0 mi NNW 18.4 mph 23.0 mph N/A   Clear
4:53 PM 57.2 °F - 33.8 °F 41% 29.89 in 10.0 mi NNW 17.3 mph - N/A   Clear
5:14 PM 57.2 °F - 33.8 °F 41% 29.90 in 10.0 mi NNW 16.1 mph 19.6 mph N/A   Clear
5:34 PM 57.2 °F - 33.8 °F 41% 29.90 in 10.0 mi NNW 13.8 mph - N/A   Clear
5:53 PM 57.2 °F - 33.8 °F 41% 29.90 in 10.0 mi NNW 10.4 mph - N/A   Clear
6:14 PM 55.4 °F - 33.8 °F 44% 29.90 in 10.0 mi NNW 10.4 mph - N/A   Clear
6:34 PM 53.6 °F - 33.8 °F 47% 29.90 in 10.0 mi NNW 10.4 mph - N/A   Clear
6:53 PM 51.8 °F - 33.8 °F 50% 29.90 in 10.0 mi NNW 8.1 mph - N/A   Clear
7:14 PM 50.0 °F - 32.0 °F 50% 29.90 in 10.0 mi NW 8.1 mph - N/A   Clear
7:34 PM 48.2 °F - 32.0 °F 54% 29.92 in 10.0 mi NW 5.8 mph - N/A   Clear
7:53 PM 48.2 °F - 32.0 °F 54% 29.92 in 10.0 mi NW 5.8 mph - N/A   Clear
8:14 PM 44.6 °F 42.2 °F 30.2 °F 57% 29.92 in 10.0 mi WNW 4.6 mph - N/A   Clear
8:34 PM 42.8 °F 39.3 °F 30.2 °F 61% 29.92 in 10.0 mi WNW 5.8 mph - N/A   Clear
8:53 PM 39.2 °F 35.0 °F 26.6 °F 61% 29.93 in 10.0 mi WNW 5.8 mph - N/A   Clear
9:14 PM 39.2 °F 35.0 °F 28.4 °F 65% 29.93 in 10.0 mi WNW 5.8 mph - N/A   Clear
9:33 PM 39.2 °F 35.0 °F 28.4 °F 65% 29.93 in 10.0 mi WNW 5.8 mph - N/A   Clear
9:54 PM 37.4 °F 33.8 °F 26.6 °F 65% 29.93 in 10.0 mi West 4.6 mph - N/A   Clear
10:14 PM 37.4 °F 33.8 °F 28.4 °F 70% 29.94 in 10.0 mi WNW 4.6 mph - N/A   Clear
10:33 PM 35.6 °F 32.8 °F 28.4 °F 75% 29.93 in 10.0 mi WNW 3.5 mph - N/A   Clear
10:54 PM 37.4 °F - 28.4 °F 70% 29.94 in 10.0 mi Calm Calm - N/A   Clear
11:14 PM 35.6 °F 32.8 °F 28.4 °F 75% 29.95 in 10.0 mi WNW 3.5 mph - N/A   Clear
11:33 PM 35.6 °F 31.7 °F 28.4 °F 75% 29.95 in 10.0 mi WNW 4.6 mph - N/A   Clear
11:54 PM 33.8 °F 29.6 °F 26.6 °F 75% 29.95 in 10.0 mi WNW 4.6 mph - N/A   Clear